Simultaneous Nadir Overpasses (SNOs) Predictions

Prediction of SNOs between LANDSAT-8 and METOP-A Satellite Orbit:

Table of predicted SNOs for the next 14.0 days since TLE Epoch: 5/22/2020
Index Date (LANDSAT-8) Time (LANDSAT-8) Lat,Lon (LANDSAT-8) SZA (LANDSAT-8 ) Date (METOP-A) Time (METOP-A) Lat,Lon (METOP-A) SZA (METOP-A ) Distance(km) Time Diff (sec)
1 05/24/2020 20:41:38 81.48, -83.72 63.39 05/24/2020 20:40:44 81.48, -83.73 63.36 0.66 54
2 05/24/2020 21:31:05 -81.48, 83.87 116.63 05/24/2020 21:31:24 -81.47, 83.97 116.61 1.84 19
3 05/27/2020 16:15:53 81.48, -17.40 62.89 05/27/2020 16:15:05 81.48, -17.35 62.87 0.78 48
4 05/27/2020 17:05:20 -81.47, 150.21 117.13 05/27/2020 17:05:45 -81.47, 150.36 117.10 2.49 25
5 05/30/2020 11:50:09 81.47, 48.89 62.43 05/30/2020 11:49:27 81.48, 49.01 62.43 1.97 42
6 05/30/2020 12:39:36 -81.47,-143.47 117.58 05/30/2020 12:40:08 -81.47,-143.66 117.58 3.16 32
7 06/02/2020 07:24:24 81.48, 115.56 62.07 06/02/2020 07:23:49 81.48, 115.35 62.03 3.39 35
8 06/02/2020 08:13:51 -81.48, -76.79 117.93 06/02/2020 08:14:29 -81.47, -76.90 117.93 2.18 38
9 06/05/2020 02:58:40 81.47,-178.20 61.71 06/05/2020 02:58:11 81.48,-178.32 61.68 2.00 29




NCC Satellite Simultaneous Nadir Overpasses (SNOs) Prediction Service
